Vorticity
29 -3 6 37 -17 17 3 11 21 3 1 14 6 14 14 5 -1 8 9 26 18 7 11 4 8 10 -1 10 2 15 6 14 6 8 7 13 7 7
51 45 4 -23 36 -4 7 26 9 -4 13 14 10 12 14 8 17 6 7 12 12 2 7 16 14 6 4 9 8 10 9 12 10 7 17 4 6 6
-3 14 -5 1 14 -4 0 -0 13 -13 33 10 6 -1 15 11 8 2 14 9 11 9 7 4 -0 9 3 5 7 5 7 8 15 17 6 10 11 12
13 1 5 4 7 19 3 3 4 22 -30 32 1 10 6 7 10 10 2 8 -0 4 13 10 5 5 3 4 7 7 13 6 7 12 12 5 5 8
-1 21 25 5 53 -11 1 25 28 13 22 18 4 6 11 14 12 1 13 10 5 3 2 4 3 5 4 5 9 14 21 16 14 11 10 8 6 9
10 25 28 27 -8 24 26 8 12 18 13 10 8 11 14 14 9 5 2 2 3 2 1 3 1 1 9 27 18 15 11 11 12 11 12 13 15 14
12 27 31 26 29 27 5 23 22 18 17 13 10 6 4 2 3 3 2 4 1 2 3 4 14 16 17 9 18 14 14 16 16 15 14 14 7 7
8 2 -2 -4 7 15 10 -0 3 4 5 4 4 5 5 6 5 3 4 4 1 9 13 11 9 16 -0 14 12 18 15 9 12 12 11 8 5 -1
9 9 11 9 11 10 9 7 3 4 6 4 5 4 4 2 1 4 2 7 15 18 17 14 12 16 19 15 13 11 9 8 4 4 10 14 12 10
6 23 23 6 6 2 0 3 3 4 4 4 2 2 4 7 10 10 16 25 15 12 16 19 20 20 14 6 5 7 10 12 14 12 10 7 9 10
23 12 3 13 2 14 8 7 5 3 4 5 4 5 8 10 20 15 16 5 14 13 20 19 13 8 3 5 10 12 10 7 7 8 8 9 10 10
6 7 9 9 1 7 3 2 -0 1 0 5 7 8 9 16 4 12 11 21 26 18 13 6 4 6 6 9 8 7 8 11 11 11 10 9 9 7
7 -0 2 4 -2 -2 -2 -1 -3 0 1 8 12 23 22 19 15 23 26 16 8 6 8 10 5 6 7 9 9 8 9 9 8 7 6 6 7 9
-4 6 6 3 1 -2 1 6 6 13 9 23 23 24 15 20 22 11 5 7 8 7 7 7 9 9 9 9 9 7 7 5 6 7 8 9 15 19
14 6 15 7 12 11 7 11 16 15 26 28 15 20 18 9 4 6 5 8 6 7 9 8 8 8 7 6 8 5 7 2 8 9 12 17 19 22
7 -2 16 22 21 24 20 20 19 18 17 19 19 10 4 7 6 7 6 8 9 9 8 5 5 6 6 6 8 8 11 14 11 16 19 22 22 21
14 27 24 1 11 22 5 9 20 26 17 9 4 9 7 7 9 10 10 10 6 5 7 10 11 10 11 11 11 12 19 23 22 22 23 20 19 16
20 16 8 1 6 14 30 27 16 5 4 11 8 9 9 11 11 8 5 7 8 9 10 8 7 7 8 12 21 27 27 21 18 18 16 15 14 13
12 -7 30 50 33 21 6 4 8 10 10 8 9 10 8 6 6 9 7 8 11 10 6 3 4 6 10 15 21 18 12 10 10 9 9 9 10 9
47 24 10 4 3 6 11 10 9 7 7 7 8 7 10 10 8 8 8 6 4 5 6 2 4 7 15 19 18 13 13 14 14 15 16 15 16 17
2 3 9 10 9 8 6 7 7 8 9 8 9 10 10 5 7 5 5 8 6 6 6 2 4 12 19 15 17 21 23 21 22 22 23 23 24 25
12 9 8 8 7 8 8 8 7 7 9 10 7 5 6 7 7 4 2 8 8 9 5 3 10 19 16 19 23 25 23 21 20 19 22 24 26 27
8 7 6 8 9 8 8 8 9 9 10 5 5 5 5 2 1 3 4 6 6 10 2 6 21 18 27 27 27 28 23 15 21 33 35 23 21 17
Height
5644 5650 5655 5658 5662 5664 5666 5668 5670 5671 5672 5672 5671 5669 5670 5669 5667 5667 5668 5667 5667 5668 5668 5667 5665 5665 5663 5661 5660 5658 5657 5655 5653 5651 5649 5647 5645 5644
5628 5636 5641 5644 5646 5649 5651 5653 5654 5657 5658 5658 5656 5654 5654 5654 5653 5654 5655 5654 5653 5655 5655 5654 5652 5651 5648 5646 5644 5642 5640 5639 5638 5637 5635 5633 5630 5628
5620 5622 5624 5629 5631 5634 5636 5638 5639 5641 5642 5643 5641 5640 5640 5641 5641 5643 5642 5641 5641 5641 5640 5639 5638 5636 5633 5631 5628 5625 5623 5621 5619 5618 5617 5615 5613 5611
5606 5603 5610 5614 5616 5618 5620 5621 5622 5624 5625 5626 5627 5627 5627 5627 5629 5630 5629 5628 5627 5627 5625 5623 5622 5619 5616 5613 5611 5609 5607 5606 5605 5601 5598 5597 5596 5595
5589 5594 5596 5599 5598 5602 5604 5605 5607 5609 5610 5612 5613 5612 5613 5615 5616 5616 5615 5614 5612 5612 5610 5608 5606 5603 5600 5596 5593 5591 5590 5587 5584 5582 5580 5578 5577 5577
5572 5576 5580 5583 5585 5586 5589 5591 5593 5595 5595 5598 5599 5600 5601 5601 5600 5600 5599 5597 5596 5594 5592 5589 5587 5585 5581 5578 5575 5573 5569 5567 5565 5562 5561 5562 5560 5559
5559 5563 5566 5568 5570 5574 5575 5577 5579 5581 5582 5584 5585 5586 5586 5586 5586 5585 5583 5581 5580 5577 5574 5571 5568 5565 5562 5559 5554 5552 5549 5547 5545 5544 5544 5543 5542 5542
5549 5550 5553 5555 5557 5559 5562 5563 5565 5567 5568 5570 5571 5572 5572 5571 5571 5569 5566 5563 5561 5559 5556 5552 5551 5546 5543 5538 5535 5532 5529 5527 5526 5526 5526 5526 5525 5526
5539 5541 5542 5544 5546 5548 5549 5550 5553 5555 5557 5557 5558 5558 5556 5554 5553 5551 5548 5544 5542 5540 5537 5530 5530 5527 5524 5518 5518 5515 5512 5510 5508 5508 5508 5505 5505 5505
5526 5530 5530 5532 5534 5537 5540 5541 5541 5542 5542 5542 5543 5542 5539 5536 5535 5532 5529 5526 5523 5520 5520 5515 5509 5508 5506 5502 5499 5497 5495 5492 5489 5487 5486 5484 5484 5484
5513 5516 5519 5521 5523 5526 5527 5528 5529 5529 5528 5526 5526 5524 5522 5520 5517 5515 5513 5509 5506 5502 5499 5498 5494 5493 5490 5486 5482 5478 5474 5472 5469 5465 5463 5462 5460 5460
5500 5502 5506 5511 5512 5513 5514 5515 5514 5512 5512 5511 5509 5508 5506 5504 5501 5498 5496 5493 5489 5485 5483 5483 5479 5476 5477 5471 5465 5458 5454 5449 5446 5442 5438 5436 5434 5434
5488 5490 5493 5497 5498 5498 5498 5497 5497 5496 5497 5496 5495 5493 5490 5488 5485 5482 5479 5477 5475 5471 5469 5467 5463 5458 5458 5456 5453 5441 5436 5429 5425 5420 5415 5411 5407 5403
5474 5477 5481 5483 5484 5482 5482 5481 5480 5482 5482 5482 5480 5478 5475 5472 5471 5468 5466 5465 5459 5455 5451 5447 5446 5442 5438 5435 5431 5426 5417 5410 5404 5398 5392 5387 5381 5375
5461 5464 5467 5467 5468 5467 5468 5467 5466 5468 5467 5467 5465 5463 5461 5460 5459 5455 5452 5451 5444 5440 5436 5432 5427 5423 5418 5412 5410 5403 5393 5388 5378 5371 5366 5362 5356 5351
5449 5451 5453 5454 5455 5455 5453 5454 5453 5454 5454 5453 5454 5452 5450 5448 5446 5443 5438 5435 5430 5424 5420 5414 5408 5403 5397 5389 5383 5375 5365 5358 5352 5344 5340 5336 5331 5325
5437 5439 5440 5443 5443 5442 5441 5442 5440 5441 5443 5444 5443 5440 5438 5436 5432 5430 5425 5421 5416 5409 5401 5394 5387 5381 5375 5367 5358 5346 5339 5330 5321 5318 5314 5311 5307 5301
5425 5427 5429 5430 5431 5428 5430 5430 5431 5432 5433 5433 5430 5430 5426 5424 5422 5416 5411 5406 5401 5393 5385 5377 5370 5363 5355 5347 5331 5324 5311 5303 5297 5293 5288 5285 5286 5279
5413 5415 5417 5417 5418 5419 5422 5424 5424 5423 5421 5422 5419 5417 5414 5411 5407 5404 5398 5392 5384 5377 5370 5362 5351 5341 5333 5325 5317 5302 5287 5280 5275 5269 5261 5258 5260 5256
5405 5408 5409 5412 5414 5414 5414 5415 5415 5412 5409 5409 5408 5406 5403 5400 5396 5389 5382 5376 5371 5364 5354 5341 5328 5316 5305 5297 5292 5284 5263 5256 5248 5243 5236 5232 5230 5228
5400 5403 5404 5405 5404 5405 5405 5406 5405 5402 5400 5399 5398 5395 5391 5387 5381 5375 5369 5362 5354 5344 5334 5321 5308 5294 5281 5271 5264 5257 5244 5229 5217 5213 5210 5206 5205 5206
5394 5396 5397 5398 5398 5398 5398 5397 5397 5394 5391 5389 5386 5383 5379 5374 5368 5361 5353 5344 5334 5324 5313 5301 5286 5272 5258 5245 5237 5229 5222 5211 5198 5190 5183 5179 5181 5184
5389 5390 5390 5391 5391 5391 5391 5389 5387 5384 5381 5379 5376 5372 5366 5360 5353 5345 5336 5326 5316 5304 5293 5281 5265 5250 5236 5223 5214 5207 5199 5191 5184 5177 5168 5159 5160 5161